This demonstration page uses our WeatherBlox Daily Observations layout. Learn more.

Left ArrowRight Arrow

34.74481, -87.66753

Hourly Observations for March 30, 2018

Temp ( °F °C ) Dew Point ( °F °C ) Humidity (%) Winds ( mph kmh ) Pressure ( in mb ) Visibility ( mi km ) Precip ( " mm )
12:53 am 00:53 Cloudy 53 11.7 47 8.3 80 80 WNW 16 26 30.03 1017 10 16 0.00 0.00
1:53 am 01:53 Cloudy 53 11.7 47 8.3 80 80 WNW 12 19 30.04 1017 10 16 0.00 0.00
2:53 am 02:53 Cloudy 53 11.7 46 7.8 77 77 NW 12 19 30.05 1018 10 16 0.00 0.00
3:53 am 03:53 Cloudy 53 11.7 46 7.8 77 77 NW 12 19 30.05 1018 10 16 0.00 0.00
4:53 am 04:53 Cloudy 52 11.1 45 7.2 77 77 NW 12 19 30.07 1018 10 16 0.00 0.00
5:53 am 05:53 Cloudy 52 11.1 44 6.7 75 75 NW 12 19 30.10 1019 10 16 0.00 0.00
6:53 am 06:53 Cloudy 51 10.6 44 6.7 77 77 NW 9 15 30.13 1020 10 16 0.00 0.00
7:53 am 07:53 Mostly Cloudy 52 11.1 44 6.7 75 75 NW 6 9 30.16 1021 10 16 0.00 0.00
8:53 am 08:53 Cloudy 52 11.1 44 6.7 75 75 NNW 8 13 30.19 1022 10 16 0.00 0.00
9:53 am 09:53 Cloudy 52 11.1 44 6.7 75 75 WNW 10 17 30.22 1024 10 16 0.00 0.00
10:45 am 10:45 Mostly Cloudy 54 12.2 43 6.1 67 67 NW 8 13 30.24 1024 10 16 0.00 0.00
10:53 am 10:53 Mostly Cloudy 55 12.8 43 6.1 64 64 NW 13 20 30.24 1024 10 16 0.00 0.00
11:53 am 11:53 Cloudy 55 12.8 42 5.6 62 62 NNW 12 19 30.25 1024 10 16 0.00 0.00
12:53 pm 12:53 Mostly Cloudy 58 14.4 42 5.6 56 56 NW 9 15 30.25 1024 10 16 0.00 0.00
1:53 pm 13:53 Mostly Cloudy 58 14.4 41 5 53 53 N 7 11 30.24 1024 10 16 0.00 0.00
2:53 pm 14:53 Mostly Cloudy 61 16.1 42 5.6 50 50 VRB 6 9 30.23 1024 10 16 0.00 0.00
3:53 pm 15:53 Sunny 61 16.1 38 3.3 43 43 WNW 10 17 30.23 1024 10 16 0.00 0.00
4:53 pm 16:53 Mostly Sunny 61 16.1 39 3.9 44 44 NW 10 17 30.22 1024 10 16 0.00 0.00
5:53 pm 17:53 Partly Cloudy 61 16.1 38 3.3 43 43 N 3 6 30.23 1024 10 16 0.00 0.00
6:53 pm 18:53 Sunny 59 15 39 3.9 48 48 NW 7 11 30.24 1024 10 16 0.00 0.00
7:53 pm 19:53 Clear 55 12.8 40 4.4 57 57 Calm 30.26 1025 10 16 0.00 0.00
8:53 pm 20:53 Clear 51 10.6 40 4.4 66 66 Calm 30.28 1025 10 16 0.00 0.00
9:53 pm 21:53 Clear 50 10 41 5 71 71 Calm 30.30 1026 10 16 0.00 0.00
10:53 pm 22:53 Clear 48 8.9 40 4.4 74 74 Calm 30.30 1026 10 16 0.00 0.00
11:53 pm 23:53 Clear 47 8.3 40 4.4 77 77 Calm 30.30 1026 10 16 0.00 0.00

Powered by AerisWeather